THORAD AGENA D DEB, 5183

Orbit data source: Space-Track

THORAD AGENA D DEB, 5183 is space debris in SSO originally from a launch on Wed, 08 Apr 1970 UTC launched from the Air Force Western Test Range (AFWTR). Debris objects in space refer to the collection of defunct objects orbiting the Earth. Examples of debris include non-operational satellites, rocket bodies, and fragments generated from explosions, collisions, or faulty payload assembly.

Loading next visibility...
Identifier
5183, 1970-025JZ
Orbit
SSO
Country
Flag of USUS
Related business
Manufacturer
Unknown
Mission
Spacecraft
Bus & Motor
Unknown
Mass
Unknown
Launch date (UTC)
1970-04-08 (56 years ago)
Launch vehicle
Unknown
Launch site
Air Force Western Test Range (AFWTR)
Object type
Payload
Rocket body
Debris
Shape & HBR
Unknown shape, 0.1 m
Radar Cross Section
Medium (>0.1 m² and <1 m²)

Expand to show TLE details & history
Last TLE update: 1 day ago

TLE from 1 day ago
0 THORAD AGENA D DEB
1 05183U 70025JZ  26207.62685678  .00000381  00000-0  41800-3 0  9994
2 05183 100.0203  99.8643 0031776 180.3599 242.0494 13.79314036810093
Epoch: 2026-07-26T15:02Z
TLE epoch observation values (Epoch: 2026-07-26T15:02:40.425Z)
Latitude
60.57571°
Longitude
-88.28443°
Altitude
987.556 km
Speed
7.358 km/s
True Right ascension
05h 26m 49s
True Declination
60° 25' 58"
Sunlit
Object was in daylight at epoch
Visualization orbit readout
Latitude
Unknown
Longitude
Unknown
Altitude
Unknown
Speed
Unknown
Apparent Right ascension
Unknown
Apparent Declination
Unknown
Sunlit
N/A
Visualization observer readout
Local Sidereal Time
04:38:05
Azimuth
Unknown
Elevation
Unknown
Doppler factor
Unknown
Orbital elements
Apogee altitude
986.929 km
Perigee altitude
940.271 km
Semi-major axis
7,341.737 km
Eccentricity
0.00318
Inclination
100.0203°
RAAN
99.8643°
Arg. of periapsis
180.3599°
True anomaly
241.72835°
Mean anomaly
242.0494°
Eccentric anomaly
241.88881°
Mean motion
3.45021 °/min
Orbital period
104.34 mins
BSTAR
0.000418
Loading maneuver chart data...
Computing Atmospheric mass density...

Documentation

Showing up to 5 results
|